Weather History for Lexington, KY

Change the Weather History Date:

Monday, March 12, 2012

  Actual Average Record
Temperature  
Mean Temperature 58 °F 44 °F  
Max Temperature 64 °F 54 °F 77 °F (1911)
Min Temperature 52 °F 35 °F 9 °F (1998)
Degree Days  
Heating Degree Days 7 21  
Month to date heating degree days 224 270  
Since 1 July heating degree days 3390 3841  
Cooling Degree Days 0 0  
Month to date cooling degree days 0 0  
Year to date cooling degree days 0 0  
Growing Degree Days 8 (Base 50)    
Moisture  
Dew Point 52 °F    
Average Humidity 66    
Maximum Humidity 90    
Minimum Humidity 42    
Precipitation  
Precipitation 0.16 in 0.13 in 2.04 in (1975)
Month to date precipitation 1.83 1.50  
Year to date precipitation 8.46 7.90  
Snow  
Snow 0.00 in 0.10 in 1.00 in (2005)
Month to date snowfall 5.3 0.7  
Since 1 July snowfall 7.6 12.0  
Snow Depth 0.00 in    
Sea Level Pressure  
Sea Level Pressure 30.13 in    
Wind  
Wind Speed 13 mph (South)    
Max Wind Speed 23 mph    
Max Gust Speed 30 mph    
Visibility 10 miles    
Events Rain    
T = Trace of Precipitation, MM = Missing Value Source: NWS Daily Summary

Daily Weather History Graph

Daily Weather History Graph

Search for Another Location

Airport:

Trip Planner

Search our weather history database for the weather conditions in past years. The results will help you decide how hot, cold, wet, or windy it might be!

Date:

Astronomy

Mar. 12, 2012 Rise Set
Actual Time 7:53 AM EDT 7:43 PM EDT
Civil Twilight 7:27 AM EDT 8:09 PM EDT
Nautical Twilight 6:56 AM EDT 8:40 PM EDT
Astronomical Twilight 6:25 AM EDT 9:10 PM EDT
Moon 12:00 AM EDT (3/12) 10:19 AM EDT (3/12)
Length of Visible Light 12h 42m
Length of Day
11h 49m
Waning Gibbous, 76% of the Moon is Illuminated
Mar 12
Waning Gibbous
Mar 14
Last Quarter
Mar 22
New
Mar 30
First Quarter
Apr 6
Full

Hourly Weather History & Observations

Time (EDT) Temp. Dew Point Humidity Pressure Visibility Wind Dir Wind Speed Gust Speed Precip Events Conditions
12:54 AM 57.9 °F 36.0 °F 44% 30.23 in 10.0 mi SSE 9.2 mph - N/A   Overcast
1:54 AM 60.1 °F 37.9 °F 44% 30.22 in 10.0 mi SSE 12.7 mph - N/A   Overcast
2:54 AM 59.0 °F 39.9 °F 49% 30.21 in 10.0 mi South 12.7 mph - N/A   Overcast
3:54 AM 57.9 °F 43.0 °F 58% 30.19 in 10.0 mi South 12.7 mph - 0.00 in   Overcast
4:54 AM 54.0 °F 46.9 °F 77% 30.17 in 7.0 mi South 10.4 mph - 0.01 in Rain Rain
5:54 AM 53.1 °F 48.0 °F 83% 30.17 in 10.0 mi SSE 10.4 mph - 0.04 in Rain Light Rain
6:54 AM 53.6 °F 48.2 °F 82% 30.17 in 10.0 mi SSE 11.5 mph - N/A Rain Light Rain
7:54 AM 53.1 °F 48.9 °F 86% 30.16 in 10.0 mi SSE 8.1 mph - 0.01 in   Overcast
8:42 AM 53.6 °F 48.2 °F 82% 30.17 in 9.0 mi SSE 8.1 mph - 0.00 in Rain Light Rain
8:54 AM 54.0 °F 48.9 °F 83% 30.17 in 10.0 mi SSE 8.1 mph - 0.00 in   Overcast
9:54 AM 55.9 °F 51.1 °F 84% 30.17 in 10.0 mi SSE 10.4 mph - 0.00 in   Overcast
10:54 AM 61.0 °F 53.1 °F 75% 30.16 in 10.0 mi South 16.1 mph - N/A   Mostly Cloudy
11:17 AM 60.8 °F 53.6 °F 77% 30.16 in 10.0 mi South 18.4 mph 25.3 mph N/A   Overcast
11:54 AM 62.1 °F 54.0 °F 75% 30.15 in 10.0 mi South 16.1 mph 29.9 mph 0.00 in Rain Light Rain
12:54 PM 62.1 °F 55.0 °F 78% 30.14 in 10.0 mi South 13.8 mph - 0.00 in Rain Light Rain
1:32 PM 60.8 °F 57.2 °F 88% 30.14 in 6.0 mi South 13.8 mph - 0.01 in Rain Light Rain
1:54 PM 60.1 °F 57.0 °F 90% 30.12 in 10.0 mi South 12.7 mph - 0.02 in Rain Light Rain
2:54 PM 60.1 °F 57.9 °F 93% 30.10 in 7.0 mi South 10.4 mph - 0.04 in Rain Light Rain
3:08 PM 60.8 °F 57.2 °F 88% 30.10 in 9.0 mi South 12.7 mph - 0.01 in Rain Light Rain
3:54 PM 63.0 °F 57.0 °F 81% 30.08 in 10.0 mi South 15.0 mph 23.0 mph 0.01 in   Overcast
4:50 PM 62.6 °F 57.2 °F 82% 30.09 in 10.0 mi South 17.3 mph 26.5 mph 0.00 in   Overcast
4:54 PM 63.0 °F 55.9 °F 78% 30.08 in 10.0 mi South 16.1 mph 25.3 mph 0.00 in   Overcast
5:54 PM 62.1 °F 57.0 °F 84% 30.07 in 10.0 mi South 19.6 mph 26.5 mph 0.00 in   Overcast
6:16 PM 62.6 °F 57.2 °F 82% 30.08 in 10.0 mi South 15.0 mph 21.9 mph N/A   Overcast
6:39 PM 60.8 °F 57.2 °F 88% 30.07 in 10.0 mi South 10.4 mph - N/A   Overcast
6:54 PM 62.1 °F 57.0 °F 84% 30.06 in 10.0 mi South 12.7 mph - N/A   Overcast
7:39 PM 62.6 °F 55.4 °F 77% 30.07 in 10.0 mi South 12.7 mph - N/A   Overcast
7:54 PM 62.1 °F 55.9 °F 80% 30.06 in 10.0 mi South 15.0 mph 21.9 mph N/A   Overcast
8:54 PM 61.0 °F 55.0 °F 81% 30.06 in 10.0 mi South 15.0 mph - N/A   Mostly Cloudy
9:54 PM 61.0 °F 55.0 °F 81% 30.07 in 10.0 mi South 11.5 mph - N/A   Mostly Cloudy
10:54 PM 60.1 °F 55.0 °F 83% 30.07 in 10.0 mi South 15.0 mph 24.2 mph N/A   Mostly Cloudy
11:54 PM 59.0 °F 55.0 °F 87% 30.07 in 10.0 mi South 15.0 mph - N/A   Mostly Cloudy